GPS BIIR-18M

Last updated on Thu Dec 18 2025 00:02:35 GMT+0000 (Coordinated Universal Time)

1 32384U 07062A 25350.80719598 -.00000061 00000+0 00000+0 0 9993 2 32384 55.1786 281.4828 0032249 162.2986 15.9546 2.00577594131858
UTC large
Height (km)
Speed (km/s)
/
Latitude / Longitude
Inclination (degrees)
Orbital Period (minutes)
Azimuth
Elevation
Range (km)
Doppler Factor

Next 0 passes for location: London (51.5072 / 0.1276)

Sorry there are no passes over London.